If you wish to contribute or participate in the discussions about articles you are invited to join SKYbrary as a registered user

 Actions

Fernando de Noronha Airport

From SKYbrary Wiki

SBFN
Airport
ICAO: SBFN – IATA: FEN
Summary
Name Fernando de Noronha Airport
Region South America and Caribbean
Territory Brazil BR.gif
Location Fernando de Noronha, Pernambuco
Serving Fernando de Noronha
Elevation 57.912 m
190 ft57.912 m
Coordinates 3° 51' 16.99" S, 32° 25' 41.99" W
Runways
Designator Length Width Surface ROPS
12/30 1845 m6,053.15 ft
45 m147.638 ft
ASP yes/yes


METAR
Observation SBFN 201400Z 14016KT 9999 SCT020 29/22 Q1012
Station Fernando De Noronha
Date/Time 20 November 2019 14:00:00
Wind direction 140°
Wind speed 16 kts
Lowest cloud amount scattered clouds
Temperature 29°C
Dew point 22°C
Humidity 66%
QNH 1012 hPa
Weather condition n/a

Gov. Carlos Wilson Airport is the airport serving the island of Fernando de Noronha, Brazil.

Climatology

Tropical monsoon climate (Köppen climate classification Am)

Maps

Terrain

Loading map...

Airport Layout

Loading map...


Accidents & Serious Incidents at or in vicinity of SBFN

None on SKYbrary